Location: Le Gr�zie
(43.6000°N, 13.5000°E)
Time: 20:47:35
(UTC+00:00)

Cosmos 921 Rocket - Pass Details

Date: 09 April 2020
Orbit: 572 x 632 km, 75.8° (Epoch: 23 May)

Event Time Altitude Azimuth Distance (km) Brightness Sun altitude
Rises 19:00:37 0° 343° (NNW) 2,789 7.1 -14.1°
Reaches altitude 10° 19:02:49 10° 345° (NNW) 1,887 6.1 -14.5°
Maximum altitude 19:07:00 77° 71° (ENE) 595 2.8 -15.2°
Enters shadow 19:09:44 21° 156° (SSE) 1,307 4.3 -15.6°
